カタログに戻る

IRIDE-MS2-HEO-13

運用中科学SSO
NORAD 68985·PAYLOAD·🇮🇹 Italy

打ち上げ May 3, 2026 から Vandenberg Space Force Base

Loading…

次のパス (今後24時間)

TLE

最新Source: Space-Track

元期: Sep 14, 2026, 11:46 UTC

1 68985U 26100F   26257.49052942  .00002052  00000-0  20960-3 0  9991
2 68985  97.7241 153.2238 0002639 146.5150 213.6236 14.91666771 20018

AllMySatでIRIDE-MS2-HEO-13をリアルタイム追跡

Download on the App Store